User: anonymous   Login
Location: Betz
(49.1556°N, 2.9558°E)
Time: 21:34:39
(UTC+00:00)
Language:

Cosmos 1954 Rocket - Orbit

View from above orbital plane
View from above orbital plane
View from above satellite
View from above satellite

Ground track
Ground track

The orbit data is extracted from the following two-line orbital elements,

1 19257U 88053B   19322.52890626  .00000042  00000-0  22714-4 0  9999
2 19257  74.0510  30.6483 0019380  60.1867  38.6294 14.37446438645838
Epoch (UTC): 18 November 2019 12:41:37
Eccentricity: 0.0019380
inclination: 74.0510°
perigee height: 753 km
apogee height: 781 km
right ascension of ascending node: 30.6483°
argument of perigee: 60.1867°
revolutions per day: 14.37446438
mean anomaly at epoch: 38.6294°
orbit number at epoch: 64583

The dashed part of the orbit path shows where the satellite is in the earth's shadow,  

DLR